Forside
METAR-TAF:

METAR-TAF

Lufthavne :

Chariton Municipal Airport

Chariton, Iowa, USA

Breddekreds: 41-02N, længdekreds: 093-22W, højde: 320 m

Aktuelle vejr

Denne rapport blev lavet for 14 minutter siden, kl. 00:35 UTC
Vind 11 kt fra nordnordvest
Temperatur 20°C
Fugtighed 40%
Tryk 1015 hPa
Sigt: 16.1 km
skyfri

METAR: KCNC 220035Z AUTO 33011KT 10SM CLR 20/06 A2997 RMK AO2

Tid: 19:49 (00:49 UTC)


TAF: fraværende

Vejrobservationer og prognoser fra mere end 4000 lufthavne (METAR og TAF).

De gule og røde prikker repræsenterer de meteorologiske stationer.

Flyt musen over at se navnet på stationen.

Så klik over at se vejr observationer og prognoser.

At skifte det kort: Klik på de grønne knapper med et sort kors for at zoome ind; på den grønne knap med en bindestreg for at zoome ud; eller på de grønne pile for tilstødende kort.


METAR-TAF: